Torna al catalogo

STARLINK-32684

AttivoComunicazioniVLEO
NORAD 62194·PAYLOAD·🇺🇸 United States

Lanciato Dec 4, 2024 da Cape Canaveral Space Force Station

Loading…

Prossimi Passaggi (prossime 24 ore)

TLE

AggiornatoSource: CelesTrak SupGP

Epoca: Sep 14, 2026, 14:49 UTC

1 62194C 24229C   26257.61784722  .00026118  00000+0  94598-3 0  2572
2 62194  43.0013 283.4771 0001391 274.4022 266.9371 15.27566012    12

Traccia STARLINK-32684 in tempo reale con AllMySat

Download on the App Store